Wind_Speed
33 33 32 28 24 22 22 21 18 16 18 22 25 27 27 28 28 30 33 34 33 32 31 31 31 31 31 30 30 29 29 28 28 29 31 32 34 35 35 35 35 35 35 34 34 34 35 36 37 38 39 39 40 40 40 39 39 38 38 37 37 37 36 36 36 35 34 34 33 32 32 32 33 35 38 40 41 40 38 38 38 38 37 36 36 35
31 33 33 31 27 25 24 24 22 19 17 17 19 20 20 21 24 27 31 33 33 32 31 31 31 31 31 31 30 30 30 29 29 29 30 31 33 34 35 36 36 36 35 35 35 35 35 36 37 38 39 40 40 40 40 39 39 39 39 39 39 38 38 38 37 36 35 34 33 32 33 34 36 39 42 43 42 40 39 38 38 37 36 36 36 36
27 30 32 31 28 25 25 25 26 24 22 18 15 14 15 16 19 24 29 31 31 30 30 31 31 31 31 31 31 31 30 30 30 30 30 31 32 34 35 36 36 36 36 35 35 35 35 35 36 37 38 39 39 39 39 39 39 40 40 40 40 40 40 39 38 37 36 35 34 35 36 38 40 43 45 44 41 40 38 38 37 36 35 34 34 34
26 28 30 28 27 25 25 25 26 26 26 23 19 16 15 14 16 21 26 29 29 28 28 29 29 30 31 31 31 32 31 31 31 31 31 31 32 33 34 35 36 36 36 35 35 35 35 35 35 36 37 38 38 38 39 39 40 40 40 41 41 41 41 41 40 38 36 36 37 38 39 40 43 45 44 42 40 38 37 35 34 33 32 32 31 31
27 28 28 27 26 25 25 24 24 25 26 26 24 21 17 15 15 18 23 26 27 27 27 26 27 27 28 29 30 31 31 31 31 31 31 31 32 32 34 35 36 36 36 35 35 35 35 35 35 36 37 37 37 37 39 40 40 40 40 40 41 41 42 43 41 39 37 39 41 42 42 43 45 45 42 39 37 36 35 33 32 31 30 29 29 28
27 27 27 26 26 25 25 24 24 24 25 26 26 25 22 17 14 16 20 23 25 25 25 24 24 25 25 26 27 28 29 30 31 31 31 31 32 33 34 35 35 36 35 35 34 34 34 35 35 36 36 36 36 37 38 38 38 37 38 38 38 38 40 42 43 41 40 42 44 45 45 47 47 45 41 37 35 34 33 31 30 29 28 28 27 27
27 27 27 27 26 25 25 25 25 25 24 24 24 25 25 21 16 14 17 20 22 23 23 23 23 24 24 24 24 26 27 28 29 30 30 31 32 33 34 35 36 36 35 35 34 34 34 34 35 35 36 36 36 36 36 34 33 33 33 33 34 35 38 41 43 43 43 44 45 47 48 48 46 43 39 36 33 32 31 30 29 28 28 28 28 28
28 28 26 26 26 25 25 26 27 27 26 24 23 23 24 22 18 14 15 17 20 22 23 24 25 24 24 23 23 25 27 28 28 29 29 30 31 32 33 35 36 36 35 34 33 33 34 34 35 36 36 36 35 34 32 31 30 30 30 31 32 35 38 42 44 45 45 45 46 47 48 46 43 40 37 34 32 31 30 29 29 29 28 29 29 29
29 28 27 26 25 25 26 27 27 28 27 26 24 23 23 22 19 15 13 15 18 20 22 24 25 25 23 21 23 25 28 28 29 29 29 29 30 31 32 34 35 35 35 34 33 33 34 34 35 35 35 34 32 31 30 30 30 29 30 31 34 38 41 43 45 45 46 46 46 46 44 41 38 35 33 32 31 31 30 30 30 30 29 29 29 29
31 29 27 25 25 25 26 26 27 27 27 26 25 24 23 23 21 17 13 14 16 19 21 22 22 22 21 21 23 26 28 29 30 29 29 29 29 30 31 32 33 33 33 33 33 33 34 34 35 35 34 32 30 30 29 30 30 30 32 35 38 40 41 42 43 43 44 44 43 41 38 34 32 31 31 31 31 31 31 31 31 31 30 30 29 29
31 31 29 26 25 25 25 25 24 24 24 24 24 24 24 24 23 19 15 14 15 17 18 18 19 21 23 24 26 28 29 30 31 30 29 29 29 30 30 30 30 31 31 32 32 33 34 34 34 34 33 31 30 30 31 31 32 34 36 39 40 41 40 39 38 39 39 39 38 36 34 32 32 32 32 33 33 33 32 32 32 31 30 30 29 28
31 30 28 25 23 23 23 22 21 21 22 22 23 24 25 25 24 22 18 15 14 16 16 17 21 25 28 29 30 30 31 33 32 30 28 27 28 29 30 30 30 30 30 31 32 33 34 34 33 33 32 31 31 32 33 35 37 39 41 41 41 40 39 37 36 35 35 35 35 34 34 34 34 34 34 34 34 33 33 32 32 31 30 30 29 28
28 26 22 20 20 20 22 21 19 19 20 21 23 24 25 25 25 23 20 17 15 16 18 19 23 27 30 32 32 31 32 33 33 31 27 24 24 27 29 30 31 31 31 32 32 33 33 33 33 33 33 32 33 34 37 39 41 42 43 42 41 39 38 37 35 34 34 34 35 35 36 36 36 36 36 35 34 34 33 32 32 31 30 29 29 28
23 20 17 16 17 19 22 22 20 19 20 21 23 24 24 24 24 24 22 19 17 17 18 20 23 26 28 29 29 30 30 32 32 31 27 24 24 25 28 30 30 31 33 34 34 34 34 34 34 34 34 35 36 37 40 42 44 44 43 41 40 39 39 38 37 36 35 35 36 36 37 37 37 37 36 35 34 34 33 32 32 31 30 29 29 28
16 16 14 14 15 17 20 21 21 20 21 22 23 23 23 24 25 25 25 22 20 19 19 20 23 26 26 26 26 27 29 30 31 31 29 27 27 28 29 31 31 32 33 34 35 35 35 35 35 35 36 37 39 41 43 44 44 43 42 41 40 40 40 39 39 38 37 36 36 36 36 36 36 35 35 34 34 33 33 32 32 31 30 29 28 28
10 12 12 12 13 15 17 19 19 20 21 23 24 24 24 25 26 27 27 25 23 22 22 23 23 26 27 26 26 27 28 29 29 30 30 29 29 31 33 35 36 36 36 37 38 38 37 37 37 38 38 40 42 44 45 45 44 43 42 41 41 41 41 41 40 40 39 38 36 35 35 34 34 33 33 33 33 32 32 32 31 30 29 28 27 26
9 11 13 14 14 15 18 19 19 19 21 22 23 24 25 26 27 28 28 26 24 25 26 27 25 25 29 29 27 26 28 29 29 29 29 27 28 30 34 39 42 44 43 43 43 42 41 40 40 41 42 43 44 45 44 43 42 42 41 41 41 40 40 40 40 39 38 38 37 36 35 34 34 33 32 31 31 31 30 30 29 28 27 26 24 23
9 10 12 14 15 17 19 20 20 21 22 23 23 23 23 25 27 29 29 27 26 27 28 29 27 27 31 33 31 28 28 29 29 29 28 26 25 26 30 35 40 43 45 46 46 45 45 44 44 45 45 44 43 43 42 42 41 41 40 40 40 39 39 38 38 38 37 37 37 36 35 34 34 33 32 31 30 30 28 27 26 25 24 23 22 22
7 8 10 11 13 16 18 19 20 22 23 23 24 23 23 24 26 28 29 28 27 27 29 29 28 29 32 36 35 32 30 31 30 30 29 27 24 23 24 28 31 35 38 40 42 43 43 44 44 43 43 42 41 41 41 41 41 41 41 40 40 39 39 39 38 38 38 37 37 36 35 34 34 33 32 31 29 28 27 25 24 23 22 22 21 21
9 6 7 5 8 11 14 17 20 23 24 25 25 25 25 24 24 25 27 28 27 28 30 30 29 29 33 37 37 35 33 33 32 32 31 30 27 23 22 23 25 27 30 32 35 37 39 39 39 39 39 39 39 40 40 41 42 42 42 42 41 41 41 41 41 40 40 39 39 38 37 35 34 32 31 29 27 26 25 23 23 22 21 21 21 21
12 10 7 6 6 7 8 13 19 23 25 26 26 27 27 26 24 24 26 27 28 28 29 29 27 27 32 37 38 38 37 36 36 36 35 34 31 27 24 24 24 26 26 28 29 32 34 35 35 35 35 35 36 37 38 39 41 42 43 43 43 43 43 43 43 43 42 41 41 40 38 37 35 34 32 30 29 27 25 24 23 22 21 21 21 20
14 12 9 7 6 5 5 10 16 22 25 26 27 28 28 27 25 24 26 27 28 29 29 29 27 27 31 36 39 39 39 39 39 39 38 37 36 33 30 28 27 28 28 28 28 29 30 32 32 32 32 32 32 33 34 35 37 38 39 40 41 42 42 42 42 41 40 39 38 37 37 36 35 34 33 32 30 29 27 26 25 23 22 22 21 20
13 12 10 8 7 6 6 9 14 19 23 25 27 28 30 29 27 25 25 27 28 29 29 30 29 28 31 36 39 39 40 41 41 41 40 40 39 37 35 33 32 32 31 30 30 30 30 30 30 30 29 28 28 28 29 30 31 32 32 33 34 35 35 35 35 34 33 33 32 31 31 30 30 29 28 27 27 26 26 26 25 25 24 23 22 21
12 11 9 8 6 5 5 6 9 14 20 25 28 29 30 30 29 27 26 27 28 28 29 32 30 29 32 36 37 39 40 42 43 43 43 42 41 39 39 38 37 37 35 33 32 31 31 30 30 29 28 27 26 26 26 26 26 27 27 28 28 28 28 28 28 28 28 27 27 27 26 26 25 24 23 23 22 22 23 24 25 25 24 23 22 20
9 9 8 7 6 5 4 3 5 9 15 22 26 28 29 30 29 28 27 27 28 28 29 31 32 32 34 36 36 37 39 42 44 45 46 44 42 40 40 40 40 40 37 34 32 32 31 31 30 29 28 27 26 25 25 25 26 26 26 27 27 27 27 27 28 28 28 27 27 27 26 26 26 25 25 24 24 24 24 25 25 25 24 23 21 20
6 5 5 4 4 4 4 4 3 6 12 18 23 26 28 28 28 28 28 29 30 30 30 32 34 37 38 38 38 37 38 41 43 45 47 44 41 39 39 40 41 41 39 36 34 32 32 31 30 29 28 27 26 25 25 26 27 27 28 28 29 29 29 30 30 30 30 30 29 29 29 28 28 28 28 28 28 28 28 27 26 26 24 23 21 19
3 2 2 1 1 2 3 4 3 4 9 15 20 23 26 27 27 28 29 31 31 31 32 35 38 40 41 41 40 39 38 39 41 43 44 44 41 39 38 40 41 42 41 39 37 35 34 34 33 32 31 29 27 26 25 26 27 28 29 30 31 31 32 32 32 32 32 31 31 30 30 30 30 30 30 29 29 29 28 27 26 25 23 22 20 18
3 2 1 1 1 2 2 3 4 4 6 12 18 22 24 25 27 30 32 32 31 32 34 39 41 41 41 41 41 39 38 37 38 39 41 43 43 41 40 41 42 43 43 42 41 39 38 37 37 36 35 34 32 30 28 27 28 29 30 31 32 33 33 33 33 33 32 32 31 31 30 30 29 29 29 28 27 27 26 25 23 22 21 19 18 17
5 4 2 1 1 2 3 3 4 5 7 10 15 20 23 25 28 32 34 32 31 33 37 41 42 41 40 41 41 39 38 37 36 37 40 43 44 43 42 42 42 44 44 43 42 40 39 39 40 40 40 39 38 36 34 32 31 31 32 32 33 33 33 33 33 33 32 32 31 30 30 29 29 28 28 27 26 25 24 23 21 20 19 17 16 15
8 6 5 4 3 2 3 4 5 6 7 8 13 18 22 25 28 32 34 33 33 35 39 41 40 39 40 42 41 39 38 37 37 38 41 43 43 43 43 43 43 43 44 43 41 39 38 38 39 40 41 42 41 40 38 36 35 35 35 35 35 34 34 33 33 32 32 31 31 30 29 29 28 28 27 26 25 24 23 22 20 19 18 17 16 15
12 11 10 8 6 5 4 6 6 6 6 7 11 16 21 24 28 33 35 36 36 37 39 38 37 36 39 40 39 36 35 36 38 39 41 42 43 44 45 44 43 43 43 43 40 37 36 37 37 38 40 41 41 41 40 39 39 38 38 38 37 36 35 34 33 32 31 30 30 29 28 28 27 27 26 25 24 23 22 21 20 19 18 17 16 15
17 16 15 13 11 8 7 7 7 7 7 8 11 16 21 24 27 32 36 37 39 39 39 37 34 31 32 34 35 36 36 37 39 41 41 42 43 45 46 45 43 41 42 43 42 39 38 39 39 39 39 40 40 40 40 40 40 40 40 40 38 37 35 34 33 32 31 30 29 28 27 27 26 26 25 24 24 23 21 20 19 18 17 16 15 14
22 21 19 17 15 13 11 9 9 9 9 10 11 15 20 23 26 30 34 36 39 41 41 38 32 27 25 29 34 38 40 40 41 42 43 43 44 45 46 45 43 41 40 41 42 44 45 45 45 43 41 40 40 40 41 41 41 41 41 41 39 38 36 34 33 32 31 30 29 28 27 26 25 25 24 23 22 21 20 19 18 17 16 16 15 14
24 24 23 21 20 18 16 14 12 12 13 13 14 16 19 22 24 26 29 33 37 41 42 40 33 27 25 29 34 39 40 41 42 43 44 44 44 45 46 45 44 43 42 41 42 45 47 49 49 47 44 43 41 41 41 41 41 41 41 41 40 38 37 35 33 32 31 30 29 28 27 26 25 24 23 22 21 20 19 19 18 17 16 15 14 13
26 26 25 24 24 23 21 18 16 16 16 17 17 18 20 22 22 23 24 27 31 36 39 39 35 31 30 33 36 38 39 40 42 44 45 44 44 44 46 45 45 45 44 45 45 46 47 48 48 48 47 45 43 41 41 41 41 41 41 40 39 38 36 35 33 32 31 29 28 27 26 25 24 23 22 21 20 20 19 18 17 17 16 15 14 13
27 28 27 27 27 26 25 22 20 19 19 19 19 19 20 21 22 21 21 21 23 27 31 34 35 35 35 37 38 39 39 40 42 43 44 44 44 44 44 44 46 47 47 48 48 48 49 49 48 48 48 47 44 42 41 41 41 41 40 39 38 36 35 34 32 31 29 28 27 25 24 23 23 22 21 21 20 19 19 18 17 17 16 15 14 13
28 29 29 28 28 28 27 25 23 22 21 21 21 21 21 22 22 22 21 20 19 20 23 28 32 34 36 38 39 40 40 41 43 43 44 44 44 45 45 45 47 49 50 51 52 52 52 51 49 47 47 47 45 44 42 41 40 39 38 37 36 35 34 32 31 29 28 27 25 24 23 23 22 22 21 20 20 19 19 18 17 16 15 15 14 13
28 29 29 28 28 28 27 27 25 24 23 23 23 22 22 22 22 22 22 21 20 19 20 24 27 31 33 35 38 40 41 42 42 42 42 43 44 45 45 46 47 49 52 54 55 56 56 53 50 48 46 46 45 45 44 43 41 40 39 37 36 34 33 31 30 28 27 26 25 24 23 22 22 21 21 20 19 19 18 17 17 16 15 14 14 13
29 29 29 28 28 27 27 26 25 24 23 23 22 21 21 21 22 22 23 22 22 21 21 23 25 27 29 32 35 38 39 40 40 39 39 40 42 43 45 46 47 49 51 54 55 56 56 55 53 50 48 46 45 45 44 43 43 41 40 38 36 34 32 31 29 28 26 25 25 24 23 23 22 21 20 20 19 18 18 17 16 16 15 15 14 14
28 28 28 27 26 26 25 25 24 23 22 21 20 19 19 20 20 21 22 23 23 23 23 23 25 26 28 30 33 35 37 37 36 36 36 37 39 41 43 44 46 48 50 52 53 54 54 54 53 52 50 49 47 45 44 43 42 41 40 38 36 34 32 30 29 28 26 25 25 24 24 23 22 21 21 20 19 18 17 17 16 16 15 15 14 14
28 28 27 26 25 24 23 23 22 21 21 20 20 19 19 19 19 20 21 22 24 24 24 24 25 26 27 29 32 34 35 35 34 33 33 34 36 38 40 42 44 46 49 50 51 51 51 52 51 50 50 49 48 46 44 42 41 40 39 38 37 35 33 31 29 28 27 26 25 25 24 23 22 22 21 20 19 18 17 17 16 16 16 16 15 15
27 26 26 25 24 23 22 21 21 21 20 21 21 21 21 20 19 18 19 20 22 24 25 25 25 26 26 27 29 31 33 34 33 32 32 33 34 36 38 39 41 44 47 49 49 49 49 49 49 49 48 48 47 46 44 42 40 38 37 37 37 35 33 32 30 29 28 27 26 25 24 23 23 22 21 20 19 18 18 17 17 17 17 16 16 16
25 25 24 24 23 22 21 20 20 21 21 21 22 23 22 21 19 18 18 18 20 22 24 25 26 26 27 27 27 28 29 31 32 32 32 32 33 35 36 38 39 41 44 47 48 47 47 47 47 47 47 47 46 46 43 41 39 37 36 35 34 34 33 32 31 29 28 27 26 25 24 23 23 22 21 20 19 19 18 18 18 18 17 17 17 16
23 23 23 23 23 22 21 22 22 22 22 22 23 23 22 21 20 19 18 18 19 20 22 24 26 28 29 28 27 27 27 28 30 31 32 32 33 34 36 37 38 39 40 43 44 45 44 43 43 43 43 43 43 43 42 41 38 36 35 33 32 32 32 31 30 29 28 27 26 25 24 23 22 22 21 20 20 19 19 19 18 18 17 17 16 16
22 22 22 23 23 23 24 24 23 23 22 22 23 23 22 21 20 20 20 19 19 19 20 22 25 28 30 29 29 28 28 28 29 29 30 31 32 33 35 36 37 37 38 38 39 39 40 40 39 39 39 39 38 39 39 38 37 36 34 33 32 31 31 30 29 29 28 28 26 25 24 23 23 22 22 21 20 20 19 18 18 17 17 16 16 16
21 22 22 23 23 24 25 24 24 23 23 23 23 23 22 21 20 20 20 20 20 20 20 21 24 28 30 30 30 29 29 29 28 29 29 30 31 32 34 36 37 37 37 37 36 35 35 36 36 36 36 36 36 36 36 36 36 36 34 33 32 32 31 30 29 29 28 27 26 25 24 24 23 23 22 21 20 19 19 18 17 17 16 16 16 16
20 21 22 22 23 23 23 23 24 24 24 24 23 23 22 21 20 20 20 20 21 21 21 21 23 26 29 31 31 31 30 30 29 29 29 29 30 31 33 35 36 37 37 37 36 35 34 34 34 35 35 36 35 35 35 35 36 36 35 34 33 32 31 30 29 28 27 26 25 24 24 23 23 22 21 20 19 19 18 18 17 17 16 16 16 16
19 19 20 21 21 22 23 23 23 23 24 24 23 23 22 21 21 20 20 20 21 22 22 23 24 25 27 29 31 32 32 32 31 30 29 29 29 30 31 33 34 35 36 37 36 36 35 34 34 33 34 35 36 36 35 35 35 35 35 35 34 32 31 29 28 26 25 24 23 23 23 22 21 20 19 19 19 18 18 17 17 16 16 16 16 16
18 18 18 19 20 21 21 22 22 23 23 23 23 23 22 22 21 21 21 21 21 22 23 24 24 25 26 27 29 31 32 33 33 32 31 30 29 29 29 30 31 33 34 35 36 36 36 35 34 32 31 32 33 35 35 34 34 33 33 33 32 31 29 28 26 24 23 22 22 22 21 20 20 19 18 18 17 17 17 16 16 16 17 17 17 17
17 17 17 18 18 19 20 20 21 21 21 21 21 22 22 21 21 21 20 21 21 22 23 23 24 24 25 25 26 28 30 32 32 32 32 30 29 28 28 28 29 30 32 32 33 34 34 33 32 31 29 27 28 30 31 32 31 30 29 28 28 27 26 25 24 23 21 21 20 20 20 19 18 18 17 16 16 16 16 16 16 17 17 17 18 18
17 16 16 17 17 18 18 19 19 19 19 20 20 20 20 21 21 20 20 20 21 22 22 22 23 23 23 23 24 25 27 28 30 31 30 30 29 28 28 27 27 27 29 30 30 31 31 30 29 27 25 24 23 24 25 27 27 27 25 24 24 24 23 23 22 21 19 19 18 18 18 17 17 16 16 15 15 14 14 15 16 17 18 18 18 18
Wind_Direction
253 252 251 252 257 264 266 265 262 251 234 226 224 224 225 225 226 228 231 235 237 238 237 236 235 235 235 235 236 236 235 234 230 226 222 219 218 216 216 215 215 215 216 217 218 218 218 219 219 219 220 221 221 221 221 221 221 220 219 218 217 216 215 215 215 215 216 216 212 208 206 208 205 196 185 177 174 175 177 180 183 185 187 188 188 187
254 253 253 253 257 263 265 264 261 256 246 234 228 227 228 227 227 228 229 232 234 236 237 236 234 234 234 234 235 236 236 235 233 229 225 222 219 217 216 215 215 215 215 215 216 216 217 218 219 220 221 222 222 222 223 223 223 222 221 219 218 217 216 215 214 215 215 212 204 196 196 198 195 187 179 175 175 178 181 184 187 189 191 191 191 190
255 254 254 254 257 261 263 263 262 260 255 250 243 239 237 233 231 229 229 231 233 236 236 235 234 233 233 233 234 235 235 235 233 231 227 224 221 218 217 216 215 214 214 214 214 215 216 217 218 220 221 222 223 223 224 224 224 223 221 219 218 217 216 216 215 214 214 206 194 187 189 191 188 181 177 176 178 181 184 187 190 193 195 195 194 194
253 254 254 254 255 256 258 261 264 264 261 258 256 253 248 243 236 232 230 231 234 236 237 235 234 233 233 233 233 233 234 233 232 230 227 224 222 219 218 216 215 214 214 214 214 215 216 217 218 219 221 222 223 223 224 224 223 221 219 217 215 215 216 216 215 213 210 197 187 185 190 190 185 180 179 180 182 185 189 191 194 196 197 196 196 196
251 251 253 253 254 254 254 258 262 264 263 262 262 263 261 256 244 235 232 234 235 236 236 234 233 233 234 235 235 234 233 232 230 228 226 224 222 220 218 217 216 215 214 214 214 215 216 217 219 220 221 222 222 223 224 223 221 218 214 211 210 210 212 214 214 210 201 188 183 186 189 188 184 182 184 188 189 189 192 194 196 196 195 194 193 192
248 249 250 251 251 252 253 256 259 260 261 262 265 267 269 268 255 239 235 237 237 237 235 233 233 234 236 237 238 238 236 234 232 229 227 225 223 220 219 217 216 215 215 215 215 216 218 218 219 220 221 221 222 223 223 220 216 212 208 205 203 203 204 207 209 204 192 184 183 185 187 185 184 185 189 193 193 192 193 193 192 190 188 187 186 185
247 247 247 249 249 250 252 254 256 256 257 259 263 267 269 270 261 246 238 238 238 236 234 232 232 233 234 236 238 239 239 238 235 233 230 228 225 222 220 218 216 215 215 215 216 218 219 219 220 220 220 220 221 221 219 215 209 203 199 197 195 194 193 195 196 194 187 184 184 185 185 184 185 187 190 191 190 190 189 187 185 183 182 181 182 184
246 246 246 247 247 248 250 251 253 254 255 256 259 263 266 267 263 252 239 237 236 235 233 231 231 230 230 231 232 235 237 237 235 233 231 230 228 226 223 220 218 216 215 216 217 218 219 219 219 219 218 218 218 216 212 207 203 199 194 191 188 186 184 182 183 185 186 186 185 185 185 187 190 193 192 189 185 183 182 180 179 179 180 181 183 185
246 247 246 244 244 246 248 249 251 252 254 256 257 258 260 262 262 256 241 234 233 234 233 233 231 229 226 222 223 227 231 232 230 229 229 229 229 228 226 223 220 218 216 217 217 218 218 218 217 216 216 215 212 207 202 199 198 197 194 190 186 182 178 177 178 182 185 186 188 188 187 190 192 192 189 183 179 177 176 177 178 180 181 182 184 185
245 248 248 244 241 243 245 248 250 252 254 255 255 255 255 257 259 258 247 234 230 231 231 231 227 220 211 207 209 215 220 222 222 222 223 225 227 228 227 226 223 220 218 218 218 217 217 216 215 214 213 209 204 199 195 193 192 192 190 185 182 179 177 178 180 182 185 186 187 187 184 182 180 177 176 175 174 174 175 177 179 181 182 183 184 185
247 249 246 239 236 237 241 245 248 251 254 254 253 251 250 251 254 255 251 236 224 220 219 215 206 196 189 186 190 197 203 205 208 210 214 218 221 223 224 223 222 221 219 218 218 217 216 215 213 212 210 204 198 194 191 188 185 183 180 177 175 175 174 175 175 175 176 177 177 176 172 169 168 168 169 171 173 174 175 177 179 180 181 182 183 184
247 246 240 231 226 229 234 239 245 250 253 253 251 248 245 244 247 250 249 237 218 205 198 189 182 179 179 177 176 179 185 189 193 197 201 206 210 213 214 214 215 215 216 216 216 216 215 214 212 209 206 200 195 192 189 183 178 175 172 170 169 168 167 165 164 163 163 165 165 165 164 165 166 168 170 172 174 175 176 177 179 180 180 181 182 183
243 241 232 222 218 221 226 233 241 248 251 251 248 245 242 240 241 244 245 236 217 199 187 176 172 174 176 176 173 172 174 178 183 187 187 188 191 196 200 202 204 205 206 206 208 210 211 210 208 205 201 196 193 190 186 179 173 169 167 165 163 162 160 157 156 157 159 160 161 163 164 166 168 170 172 173 174 174 176 177 178 179 180 181 182 183
239 237 233 227 223 222 224 229 236 244 249 250 248 245 242 238 238 240 241 235 220 201 186 173 169 171 175 176 176 176 173 174 176 176 172 165 166 174 182 188 193 195 196 196 196 199 202 202 201 199 197 195 191 186 180 173 168 164 161 159 157 156 155 154 155 157 160 161 163 165 167 168 169 170 171 172 173 174 175 176 177 178 179 180 182 183
233 234 240 243 238 232 230 232 237 244 250 253 252 250 245 240 237 236 237 234 224 210 196 182 171 168 170 173 177 180 180 176 172 166 158 149 147 153 163 171 177 182 185 184 185 188 193 194 193 192 192 190 184 177 171 165 160 157 156 154 154 155 155 155 157 158 160 162 163 165 167 168 169 170 170 171 172 172 174 175 176 177 178 179 180 182
220 223 229 235 237 235 233 235 239 244 246 249 251 251 247 243 237 234 235 233 226 216 209 199 180 165 163 168 176 182 184 180 176 168 156 147 141 141 148 153 157 163 168 169 171 175 182 186 188 186 183 178 172 167 162 158 155 154 154 155 156 156 157 157 158 159 160 160 161 162 164 165 166 167 169 170 170 171 172 173 174 175 176 177 178 179
212 214 218 219 221 223 226 229 230 231 232 235 238 242 244 243 239 236 235 232 225 216 210 203 186 164 157 162 171 180 183 177 172 167 163 156 145 140 141 141 142 145 150 153 157 161 167 173 176 174 169 164 161 158 156 155 155 156 157 157 158 158 159 159 159 159 159 160 160 162 162 163 163 165 166 168 169 170 171 172 172 172 173 174 175 175
191 201 208 211 216 220 224 227 228 228 227 226 226 230 236 240 240 238 236 232 225 216 209 202 187 166 155 157 164 174 180 174 166 161 161 157 151 147 143 139 137 137 139 142 145 149 153 156 157 156 155 154 153 152 153 154 156 157 157 157 158 158 159 159 159 160 160 160 161 162 163 163 164 165 166 167 168 169 169 169 169 169 169 170 170 171
148 178 193 204 215 221 224 227 228 229 228 226 224 223 225 231 236 237 235 232 225 216 207 198 185 170 158 158 163 170 176 173 165 157 152 149 149 151 151 145 140 136 135 136 138 141 143 144 146 147 148 149 149 150 152 153 154 155 155 155 156 157 157 158 158 159 159 159 160 160 161 162 162 163 163 163 164 164 165 164 164 164 165 166 167 167
102 128 160 181 208 218 223 227 228 228 228 227 225 223 221 223 226 229 230 228 224 216 206 195 184 170 160 159 162 167 171 171 164 155 150 150 152 157 160 156 148 141 138 138 138 138 139 140 142 145 147 149 151 152 153 153 154 154 154 154 154 155 155 155 156 156 157 157 157 158 158 158 158 157 157 157 157 157 158 159 159 160 162 163 165 166
90 101 128 157 183 200 216 223 226 227 228 228 226 223 221 220 219 221 223 223 220 214 204 194 184 173 162 159 160 164 168 169 163 155 152 151 153 157 162 159 152 145 143 143 143 142 141 141 143 146 149 151 154 155 157 157 157 156 156 156 155 155 155 155 155 156 157 158 158 159 159 159 159 158 158 157 157 157 157 157 159 160 162 164 166 166
82 91 114 146 165 177 206 222 225 225 226 226 223 220 218 216 214 214 216 216 212 207 200 195 188 177 165 160 160 162 167 170 167 160 154 149 150 154 158 158 154 150 148 148 147 145 143 143 144 147 150 152 154 157 158 159 159 159 160 160 159 159 159 159 160 161 162 163 164 165 166 166 166 165 165 164 163 162 161 161 161 163 165 167 168 168
80 87 104 126 145 165 196 218 223 223 223 222 219 217 215 213 211 210 210 208 204 199 195 193 189 181 169 162 159 160 164 168 170 166 158 149 146 150 155 157 156 153 152 152 149 146 144 144 144 146 149 152 155 157 158 159 159 161 162 162 162 162 163 164 164 165 166 167 168 169 170 170 171 171 171 169 168 165 163 162 162 164 166 168 169 169
71 79 92 105 120 141 174 204 221 224 222 219 216 214 213 213 212 210 207 203 200 196 191 190 188 182 173 165 159 158 159 163 166 165 159 149 145 147 152 155 154 152 152 153 152 150 148 146 146 148 150 152 154 155 156 157 158 159 160 161 161 162 162 163 163 163 164 165 166 167 168 168 168 167 166 164 162 160 158 158 161 164 166 168 169 169
56 62 72 85 102 120 145 175 216 224 221 216 213 211 209 210 209 208 206 204 200 195 190 186 183 180 174 168 162 158 156 158 162 162 157 147 143 144 149 152 151 148 148 151 152 151 149 148 149 150 152 154 155 155 154 155 155 156 156 157 158 158 158 158 158 158 158 160 161 162 162 161 160 158 157 155 155 155 155 159 162 165 167 169 170 170
51 56 66 78 99 123 136 144 181 214 215 210 207 205 205 204 204 204 203 204 203 199 191 182 177 173 171 169 165 162 158 157 160 160 156 147 141 142 145 147 146 144 144 147 149 149 149 149 151 154 157 159 159 158 157 156 155 155 155 156 156 156 156 155 155 156 156 157 158 158 158 157 156 156 155 155 155 157 159 162 165 167 169 170 170 171
64 63 70 84 118 141 141 132 135 179 200 197 196 196 197 198 199 200 200 202 203 199 190 178 169 166 166 167 167 165 162 159 158 157 155 149 144 142 142 143 142 140 140 141 143 145 146 148 151 156 159 161 162 163 162 160 159 158 157 157 157 156 156 155 155 156 156 157 157 157 157 157 157 157 158 158 159 161 163 165 167 169 170 171 172 173
74 81 107 191 225 220 191 152 130 134 165 176 178 180 184 188 193 196 197 198 197 192 184 173 164 159 160 163 164 164 162 160 157 155 156 154 149 145 145 144 143 140 137 136 138 141 143 146 150 154 157 159 161 163 163 163 162 161 160 160 160 159 159 159 159 158 159 159 159 159 159 160 160 161 161 162 163 164 166 167 169 170 171 173 174 176
73 84 106 148 194 220 217 188 145 124 128 145 154 160 167 175 183 188 191 193 189 182 175 169 162 158 157 159 160 160 161 161 158 158 161 158 153 149 150 149 148 144 138 134 134 137 140 144 148 151 153 156 157 159 161 162 163 163 164 164 164 164 163 163 162 162 162 162 163 163 163 164 164 164 165 165 166 167 169 170 171 173 174 176 178 180
70 78 92 108 128 161 188 187 163 136 121 118 126 136 147 161 172 179 184 185 180 173 169 165 160 156 154 154 154 155 158 159 160 161 165 160 155 152 154 155 154 151 146 139 135 134 137 143 147 149 150 152 154 156 159 163 165 166 166 167 168 168 168 167 167 167 167 167 168 168 168 168 167 167 168 168 169 170 172 173 175 176 178 180 182 185
64 69 76 85 97 120 151 169 167 154 133 111 104 110 123 140 157 169 177 176 171 167 165 161 156 152 150 150 150 150 152 155 158 162 167 161 156 155 158 158 158 158 157 150 142 136 136 140 145 150 152 153 154 157 160 164 166 167 168 169 170 170 171 171 172 172 172 172 172 172 172 171 170 170 170 171 172 173 174 176 178 180 182 184 186 188
63 65 70 75 83 98 118 144 159 158 141 119 102 98 103 120 140 156 165 167 166 165 164 160 155 151 150 152 152 150 149 151 155 161 164 159 156 158 162 161 158 158 161 158 152 146 142 141 145 151 155 157 157 159 162 165 168 169 170 171 171 172 174 175 176 176 176 176 176 175 175 174 173 173 173 174 175 176 177 179 181 183 185 188 190 192
65 67 70 74 79 86 97 115 132 137 129 118 105 95 92 105 126 143 153 158 162 164 164 162 159 156 155 154 152 150 149 150 154 158 159 155 154 156 161 160 157 155 157 157 155 152 149 147 148 152 157 160 161 163 165 167 170 172 173 174 174 174 176 178 179 180 179 179 179 178 177 177 177 177 177 177 178 179 181 183 185 187 190 193 195 197
66 67 70 73 77 81 89 100 111 115 113 110 103 93 88 96 113 130 142 150 156 161 163 163 163 162 158 152 149 147 148 151 153 155 155 153 153 155 157 157 155 154 154 153 152 152 150 150 151 152 154 159 163 165 167 169 171 174 176 177 178 178 179 181 182 182 182 181 181 180 180 179 179 180 180 181 182 183 185 187 190 193 195 198 201 204
64 66 68 70 72 75 80 88 96 101 101 100 97 91 87 93 104 118 130 140 149 155 160 162 163 161 157 152 149 147 148 150 152 153 153 153 153 154 155 155 156 156 154 153 152 150 148 149 151 152 153 155 159 164 168 171 174 176 179 181 181 181 182 183 184 184 184 183 183 182 182 182 182 183 184 185 186 188 190 193 196 199 201 204 207 211
62 63 64 65 67 69 72 76 82 88 91 92 93 91 89 94 103 113 123 131 139 146 151 155 157 157 156 154 152 151 150 151 152 153 154 154 154 154 154 155 158 159 157 155 154 152 149 149 151 154 155 155 156 160 166 172 176 179 180 182 183 184 184 185 185 186 186 185 185 184 184 185 186 186 188 189 191 193 196 199 202 205 208 211 215 219
60 60 60 60 62 64 66 70 74 77 80 83 86 88 90 95 104 114 123 129 134 139 143 147 149 150 152 154 154 154 153 153 154 155 157 157 157 157 156 157 161 163 161 158 156 155 154 152 152 154 157 157 157 159 164 172 177 180 181 183 184 185 186 186 187 187 187 187 186 186 187 188 190 191 192 194 196 199 202 205 208 211 215 219 223 227
57 57 57 57 58 60 62 64 67 71 74 76 78 82 87 94 104 114 123 130 136 139 142 145 145 146 147 150 152 153 154 154 155 157 158 159 160 160 159 160 163 166 166 163 162 160 158 156 154 154 156 159 161 163 166 171 175 179 181 183 185 186 186 187 188 188 189 189 189 189 190 192 193 195 197 199 201 204 207 211 214 218 222 227 231 236
53 53 54 54 55 56 58 61 64 68 72 74 77 81 87 95 105 115 123 131 137 142 145 148 148 147 146 148 150 152 153 154 155 156 157 159 161 163 163 163 164 166 167 167 166 165 163 161 160 159 159 160 162 165 169 173 176 178 180 182 184 186 186 187 188 189 190 191 191 192 193 195 197 198 200 203 206 209 213 216 221 225 229 233 238 243
51 52 53 53 53 54 56 59 63 68 72 76 80 85 91 96 104 113 123 131 138 143 147 151 153 152 150 149 150 152 154 155 155 156 157 159 162 164 165 166 167 167 167 166 166 166 166 165 165 166 166 165 164 165 168 172 176 179 180 180 180 182 185 187 188 189 191 193 194 195 196 198 200 202 204 207 210 214 217 220 225 230 235 239 242 247
51 52 52 52 53 55 56 59 63 67 72 77 83 88 91 94 98 105 115 126 135 141 145 150 155 157 155 152 152 153 156 157 158 158 159 161 164 167 168 169 169 169 167 166 166 166 167 167 167 168 169 169 169 169 170 173 176 180 181 181 181 182 184 186 188 190 191 193 196 198 200 202 203 205 207 210 213 216 220 223 227 233 238 243 247 250
52 51 52 52 53 54 56 59 63 67 71 75 80 83 86 90 93 98 106 115 124 131 139 144 149 153 154 153 151 152 155 157 160 162 164 166 168 170 172 172 172 171 170 168 167 167 168 169 169 169 170 171 171 170 170 173 176 179 183 184 184 184 184 187 189 191 192 194 197 200 202 205 207 208 210 212 215 218 222 226 230 235 240 245 249 252
53 52 52 53 53 54 56 59 61 64 68 71 74 77 81 85 91 97 103 107 113 120 128 135 141 146 149 148 147 147 149 153 158 162 165 168 171 173 174 174 174 174 173 171 169 168 170 171 170 170 171 173 173 172 170 172 175 179 183 187 187 185 184 187 190 193 195 197 199 202 204 207 209 211 213 216 219 222 226 230 234 238 242 246 249 252
53 53 53 54 54 55 56 57 58 60 63 66 69 72 77 82 88 95 100 104 108 113 118 125 133 139 142 141 140 141 143 147 153 158 162 166 169 172 174 175 175 176 176 175 173 171 171 171 170 171 172 174 175 174 173 174 175 178 182 187 190 191 190 191 194 196 198 201 203 205 207 209 212 215 218 221 224 228 231 234 237 240 243 246 249 250
55 55 54 54 54 54 55 55 56 57 60 64 66 69 73 78 85 92 97 102 106 110 113 118 124 127 125 127 131 134 138 143 148 153 157 162 166 169 171 172 172 174 176 177 177 176 174 173 172 173 175 176 176 176 175 175 177 180 183 187 191 194 196 198 199 200 203 205 206 208 211 213 216 219 222 225 228 231 234 236 239 241 243 245 247 248
55 55 55 54 54 54 55 55 56 57 59 62 64 67 70 75 82 89 96 101 105 108 112 119 120 116 111 113 118 124 129 135 140 145 151 155 160 164 166 168 169 171 173 174 176 178 178 178 177 177 177 178 178 178 178 179 180 182 185 188 192 195 198 200 201 202 204 206 208 210 213 217 219 222 224 227 230 232 235 236 238 239 241 243 245 247
54 55 55 55 55 56 56 56 56 57 58 60 62 64 67 72 79 86 94 99 103 107 111 118 119 113 107 106 109 113 117 122 128 134 141 148 154 158 161 164 166 169 171 171 172 173 175 177 179 181 181 180 178 178 180 183 184 185 187 190 193 195 197 199 201 203 204 206 208 212 215 219 222 224 226 229 230 232 234 235 236 237 239 241 244 248
54 54 55 56 56 57 56 56 57 57 58 59 60 62 65 69 75 81 88 95 101 105 109 113 114 112 108 105 105 108 111 114 118 123 130 137 144 151 156 160 163 166 169 171 171 171 171 173 174 177 180 181 179 178 181 184 186 188 189 191 194 195 197 198 200 202 204 207 210 213 217 220 222 224 226 228 230 231 232 234 235 237 239 242 245 248
54 55 55 56 56 56 56 57 57 57 58 59 60 62 63 67 71 77 83 90 96 101 104 106 108 109 108 105 105 107 109 111 115 118 122 128 134 141 148 153 157 161 164 166 168 169 170 170 170 172 175 178 178 178 180 183 186 188 190 192 193 195 196 197 200 202 205 207 211 214 217 220 222 224 225 227 229 231 233 235 237 240 241 244 246 249
56 55 56 55 56 56 56 57 57 58 59 60 61 63 64 66 69 73 79 85 90 94 97 101 104 106 107 107 108 108 109 110 112 115 118 123 128 134 139 145 151 154 156 158 160 162 161 161 162 164 167 171 174 175 176 179 183 186 188 189 191 193 195 196 199 202 205 207 211 214 217 220 222 224 225 227 229 233 236 239 242 245 246 247 250 252
57 56 56 56 56 57 57 58 59 59 60 61 62 64 66 67 69 72 75 79 83 87 90 95 98 101 104 107 110 112 112 112 112 112 115 120 126 131 136 141 147 150 151 150 151 152 152 149 148 149 155 162 169 173 176 178 182 185 185 188 191 193 195 197 199 202 204 207 211 214 217 219 222 224 226 228 231 235 240 245 249 251 252 253 255 258
Height
1407 1407 1407 1409 1410 1410 1411 1411 1412 1412 1413 1414 1415 1415 1416 1417 1417 1418 1419 1421 1422 1422 1423 1424 1425 1426 1427 1428 1429 1431 1432 1433 1435 1436 1437 1439 1441 1442 1444 1446 1447 1449 1450 1452 1454 1455 1457 1458 1460 1462 1464 1466 1468 1469 1471 1472 1474 1476 1478 1480 1482 1484 1486 1488 1490 1492 1493 1495 1496 1497 1498 1500 1502 1503 1505 1507 1508 1510 1512 1513 1515 1516 1516 1517 1519 1520
1406 1406 1407 1407 1408 1409 1409 1410 1410 1411 1411 1412 1413 1413 1414 1415 1416 1417 1418 1419 1420 1421 1421 1422 1423 1424 1425 1426 1427 1428 1430 1431 1432 1433 1435 1436 1438 1440 1442 1443 1445 1447 1448 1450 1452 1453 1455 1457 1458 1460 1462 1464 1465 1467 1468 1470 1472 1473 1475 1477 1479 1482 1483 1485 1487 1490 1492 1493 1494 1495 1497 1498 1500 1502 1503 1505 1507 1508 1510 1512 1513 1514 1515 1516 1518 1520
1406 1406 1405 1406 1407 1408 1408 1409 1409 1410 1410 1411 1411 1412 1412 1414 1415 1416 1417 1417 1418 1419 1420 1420 1421 1422 1423 1424 1425 1426 1427 1429 1430 1431 1432 1434 1435 1437 1439 1441 1442 1444 1446 1448 1449 1451 1452 1454 1456 1458 1459 1461 1462 1464 1466 1468 1469 1471 1473 1474 1477 1479 1481 1483 1485 1487 1490 1491 1492 1493 1495 1497 1498 1500 1502 1503 1505 1507 1509 1511 1512 1514 1515 1516 1517 1519
1405 1404 1404 1405 1406 1407 1407 1408 1408 1409 1409 1409 1410 1411 1411 1412 1413 1414 1415 1415 1416 1417 1418 1419 1419 1420 1421 1422 1423 1424 1425 1426 1427 1428 1430 1431 1433 1434 1436 1438 1440 1442 1444 1446 1447 1449 1451 1452 1454 1455 1457 1458 1461 1462 1464 1466 1467 1469 1470 1472 1474 1476 1478 1480 1483 1486 1487 1488 1490 1492 1493 1495 1497 1499 1501 1502 1504 1507 1508 1510 1512 1513 1514 1516 1517 1519
1403 1403 1403 1404 1405 1406 1406 1407 1408 1408 1408 1408 1409 1409 1410 1410 1411 1412 1413 1413 1414 1415 1416 1417 1418 1419 1419 1420 1421 1421 1422 1423 1425 1426 1427 1428 1430 1432 1434 1436 1437 1439 1442 1443 1445 1447 1449 1450 1452 1453 1455 1457 1458 1461 1462 1463 1465 1466 1467 1469 1471 1473 1476 1478 1481 1483 1485 1486 1487 1489 1492 1494 1496 1498 1500 1502 1504 1505 1508 1510 1511 1512 1514 1515 1517 1518
1402 1402 1402 1403 1404 1404 1405 1406 1407 1407 1407 1407 1408 1408 1409 1409 1409 1410 1411 1412 1412 1413 1414 1415 1416 1417 1417 1418 1418 1419 1420 1421 1422 1423 1424 1426 1427 1429 1431 1433 1435 1437 1439 1441 1443 1445 1447 1448 1450 1451 1453 1455 1457 1458 1460 1461 1462 1463 1465 1467 1469 1471 1473 1476 1478 1480 1482 1484 1486 1487 1490 1492 1494 1497 1499 1502 1503 1505 1507 1509 1510 1512 1513 1514 1516 1518
1400 1400 1401 1402 1402 1403 1404 1405 1406 1406 1406 1407 1407 1408 1408 1408 1408 1409 1410 1410 1411 1412 1413 1414 1414 1415 1416 1416 1416 1417 1417 1418 1419 1421 1422 1423 1425 1427 1429 1431 1433 1435 1437 1439 1441 1443 1444 1446 1447 1449 1451 1453 1455 1456 1457 1458 1459 1460 1462 1464 1467 1469 1472 1474 1476 1477 1479 1482 1484 1486 1488 1490 1492 1495 1498 1501 1503 1504 1506 1508 1510 1511 1512 1514 1516 1517
1398 1399 1400 1400 1401 1402 1403 1403 1404 1404 1404 1405 1406 1407 1407 1407 1407 1408 1408 1409 1410 1410 1411 1412 1413 1413 1414 1415 1415 1415 1415 1416 1417 1418 1420 1421 1422 1424 1426 1428 1431 1432 1435 1437 1439 1441 1442 1444 1446 1447 1449 1451 1452 1453 1454 1456 1457 1459 1461 1463 1466 1469 1471 1473 1473 1474 1476 1479 1482 1484 1487 1489 1491 1494 1496 1499 1502 1503 1505 1507 1509 1511 1512 1514 1515 1517
1397 1397 1398 1398 1399 1400 1401 1401 1402 1402 1402 1403 1404 1405 1405 1406 1406 1407 1407 1408 1408 1409 1410 1411 1411 1412 1413 1414 1414 1413 1413 1414 1415 1416 1418 1419 1420 1422 1424 1426 1428 1431 1433 1435 1437 1439 1440 1442 1444 1446 1447 1449 1450 1451 1453 1455 1457 1459 1461 1463 1466 1468 1470 1471 1472 1472 1474 1477 1480 1483 1485 1488 1490 1493 1496 1498 1501 1502 1504 1506 1508 1510 1512 1513 1515 1517
1395 1396 1396 1397 1398 1399 1399 1399 1400 1400 1401 1402 1402 1403 1404 1404 1405 1406 1406 1407 1407 1408 1409 1409 1410 1411 1412 1412 1412 1412 1412 1412 1414 1415 1416 1417 1419 1420 1422 1424 1426 1428 1431 1433 1435 1436 1438 1440 1442 1444 1446 1447 1448 1450 1452 1455 1457 1459 1461 1463 1465 1467 1469 1471 1471 1472 1473 1476 1479 1482 1484 1487 1490 1493 1496 1498 1500 1502 1504 1506 1508 1510 1511 1513 1514 1516
1394 1394 1395 1396 1397 1397 1397 1397 1398 1399 1399 1400 1401 1402 1402 1403 1404 1405 1406 1406 1407 1407 1408 1409 1409 1410 1411 1411 1411 1410 1410 1411 1412 1414 1415 1416 1417 1418 1420 1422 1424 1426 1428 1431 1432 1434 1436 1438 1440 1442 1444 1446 1447 1450 1452 1455 1457 1458 1461 1462 1464 1466 1468 1470 1471 1472 1474 1476 1479 1482 1484 1487 1490 1493 1495 1497 1500 1501 1503 1505 1507 1509 1511 1512 1514 1515
1392 1392 1393 1393 1394 1395 1395 1396 1397 1397 1398 1399 1399 1400 1401 1402 1403 1404 1405 1405 1406 1407 1407 1408 1409 1409 1409 1408 1408 1408 1408 1409 1410 1412 1414 1415 1416 1417 1419 1420 1422 1425 1427 1429 1431 1432 1434 1436 1439 1441 1443 1445 1447 1449 1452 1454 1456 1457 1459 1461 1463 1465 1467 1469 1471 1473 1475 1477 1479 1482 1485 1488 1491 1493 1495 1497 1499 1501 1502 1505 1507 1508 1510 1512 1513 1514
1390 1391 1391 1391 1392 1392 1393 1394 1395 1396 1397 1397 1397 1398 1399 1401 1402 1403 1404 1405 1406 1406 1407 1407 1408 1408 1407 1407 1407 1407 1407 1407 1409 1411 1413 1414 1415 1416 1417 1419 1421 1423 1425 1427 1429 1431 1432 1435 1437 1440 1441 1443 1445 1448 1450 1453 1454 1456 1458 1460 1462 1464 1466 1468 1471 1473 1476 1478 1480 1482 1485 1488 1490 1492 1494 1497 1498 1500 1502 1504 1506 1508 1509 1511 1512 1514
1388 1388 1388 1388 1389 1390 1391 1393 1394 1395 1395 1395 1396 1397 1398 1400 1401 1402 1403 1404 1405 1406 1407 1407 1407 1407 1407 1407 1407 1406 1406 1406 1408 1410 1412 1414 1415 1415 1415 1417 1419 1421 1422 1425 1427 1429 1431 1433 1436 1438 1440 1442 1444 1447 1449 1451 1452 1454 1456 1459 1461 1463 1466 1468 1470 1473 1476 1479 1481 1483 1485 1487 1490 1492 1494 1496 1498 1500 1502 1504 1506 1507 1509 1510 1512 1513
1386 1386 1386 1386 1387 1388 1390 1392 1393 1394 1394 1395 1395 1397 1398 1399 1400 1401 1402 1403 1404 1405 1407 1407 1407 1407 1406 1406 1406 1406 1406 1406 1407 1410 1412 1414 1415 1415 1414 1415 1417 1419 1421 1423 1425 1427 1429 1431 1434 1437 1439 1442 1443 1445 1447 1449 1451 1453 1456 1458 1461 1464 1466 1467 1470 1473 1476 1479 1482 1484 1486 1487 1489 1492 1493 1496 1497 1499 1501 1503 1505 1507 1508 1510 1511 1513
1383 1383 1384 1385 1387 1388 1390 1391 1392 1392 1393 1393 1394 1395 1396 1397 1398 1399 1400 1402 1403 1405 1406 1406 1406 1405 1405 1406 1406 1406 1406 1407 1408 1409 1412 1415 1416 1416 1415 1415 1416 1418 1420 1422 1424 1426 1428 1430 1432 1435 1438 1440 1442 1444 1446 1448 1451 1453 1456 1458 1461 1463 1465 1467 1469 1472 1475 1478 1481 1483 1486 1488 1490 1492 1494 1496 1498 1500 1501 1503 1504 1506 1508 1509 1511 1513
1381 1382 1383 1384 1385 1386 1387 1387 1388 1389 1390 1391 1392 1393 1394 1395 1396 1397 1399 1400 1402 1403 1404 1404 1403 1403 1403 1405 1405 1405 1406 1407 1408 1410 1412 1415 1417 1417 1417 1416 1416 1418 1420 1422 1423 1425 1427 1429 1431 1434 1437 1439 1441 1443 1446 1448 1451 1453 1456 1458 1460 1463 1465 1467 1469 1472 1474 1477 1480 1483 1485 1487 1489 1492 1494 1496 1498 1500 1502 1503 1504 1506 1507 1509 1511 1513
1381 1381 1382 1383 1384 1384 1385 1386 1386 1387 1387 1388 1389 1391 1392 1393 1394 1396 1397 1399 1400 1402 1402 1402 1402 1401 1401 1402 1404 1405 1405 1406 1407 1409 1412 1414 1417 1418 1418 1418 1418 1419 1421 1423 1424 1426 1428 1429 1431 1433 1436 1439 1441 1443 1446 1448 1451 1453 1456 1458 1460 1463 1465 1467 1470 1472 1475 1477 1480 1482 1485 1487 1489 1491 1493 1496 1498 1500 1501 1503 1504 1506 1507 1509 1511 1513
1380 1381 1381 1382 1383 1383 1384 1384 1385 1385 1386 1387 1387 1388 1390 1392 1393 1394 1395 1397 1398 1399 1400 1401 1401 1401 1399 1400 1401 1403 1405 1406 1407 1409 1411 1414 1416 1418 1419 1420 1420 1421 1423 1424 1426 1428 1430 1432 1433 1435 1438 1440 1442 1444 1447 1449 1451 1454 1456 1458 1461 1463 1465 1467 1470 1472 1475 1477 1480 1482 1485 1487 1489 1491 1493 1495 1497 1499 1501 1502 1504 1506 1507 1509 1511 1512
1380 1380 1381 1381 1382 1382 1382 1383 1383 1384 1384 1385 1386 1387 1388 1390 1392 1393 1394 1395 1397 1398 1399 1400 1400 1400 1398 1399 1401 1402 1404 1405 1407 1408 1410 1413 1416 1419 1420 1421 1422 1423 1425 1426 1428 1430 1432 1434 1436 1438 1440 1442 1444 1446 1448 1450 1452 1455 1457 1459 1461 1463 1465 1467 1470 1472 1474 1477 1479 1482 1484 1487 1489 1491 1492 1494 1497 1498 1500 1502 1504 1505 1507 1509 1511 1513
1379 1379 1379 1380 1380 1381 1381 1381 1381 1382 1383 1384 1385 1386 1387 1388 1390 1391 1392 1394 1396 1397 1398 1399 1399 1399 1398 1398 1400 1402 1403 1404 1405 1407 1410 1413 1416 1419 1420 1421 1423 1424 1426 1428 1430 1431 1433 1435 1438 1440 1442 1444 1446 1447 1449 1452 1454 1456 1457 1459 1461 1463 1465 1467 1470 1472 1474 1476 1478 1481 1483 1486 1488 1490 1491 1493 1496 1498 1500 1502 1504 1506 1508 1510 1512 1513
1379 1378 1379 1379 1379 1380 1380 1380 1380 1381 1382 1383 1383 1384 1385 1387 1388 1390 1391 1392 1394 1395 1397 1397 1398 1398 1398 1398 1399 1401 1402 1402 1403 1405 1408 1413 1416 1418 1420 1421 1423 1425 1427 1429 1430 1432 1434 1436 1438 1441 1443 1446 1447 1449 1451 1453 1455 1457 1458 1460 1462 1464 1466 1468 1470 1472 1474 1476 1478 1481 1482 1485 1487 1488 1490 1492 1494 1496 1498 1501 1503 1505 1507 1510 1512 1513
1379 1378 1378 1378 1378 1379 1379 1379 1379 1379 1380 1381 1381 1382 1383 1385 1386 1388 1390 1392 1392 1394 1395 1396 1397 1398 1398 1398 1399 1401 1402 1402 1402 1403 1406 1411 1415 1417 1419 1421 1422 1425 1428 1429 1431 1433 1435 1437 1439 1441 1443 1446 1449 1451 1452 1454 1456 1457 1459 1461 1463 1465 1467 1469 1471 1472 1475 1477 1479 1481 1482 1484 1486 1487 1489 1491 1492 1494 1497 1499 1501 1504 1507 1509 1511 1512
1379 1378 1378 1378 1378 1378 1378 1378 1378 1378 1378 1379 1380 1381 1382 1384 1385 1387 1389 1390 1391 1392 1393 1395 1397 1399 1399 1399 1399 1400 1401 1402 1402 1403 1405 1409 1413 1417 1418 1420 1422 1425 1428 1430 1432 1433 1435 1437 1439 1442 1444 1447 1449 1451 1453 1455 1457 1458 1460 1462 1464 1467 1468 1470 1471 1473 1475 1477 1479 1481 1483 1484 1486 1487 1488 1490 1491 1493 1495 1498 1500 1503 1506 1508 1510 1512
1380 1379 1379 1378 1378 1378 1378 1378 1378 1378 1377 1378 1379 1380 1382 1383 1384 1386 1388 1389 1390 1392 1392 1394 1397 1398 1398 1398 1398 1399 1401 1401 1402 1402 1403 1408 1413 1417 1418 1419 1420 1423 1427 1430 1432 1433 1435 1437 1441 1443 1446 1448 1450 1452 1454 1456 1457 1459 1461 1463 1465 1467 1468 1470 1472 1473 1475 1477 1479 1481 1482 1484 1485 1487 1488 1489 1491 1493 1495 1498 1500 1503 1506 1508 1509 1511
1380 1380 1379 1379 1379 1379 1378 1378 1378 1378 1377 1377 1377 1379 1380 1381 1383 1385 1386 1387 1389 1390 1391 1392 1394 1396 1396 1396 1397 1398 1400 1402 1402 1402 1402 1407 1412 1416 1418 1419 1419 1421 1425 1429 1432 1434 1436 1438 1441 1444 1447 1449 1452 1453 1455 1457 1459 1461 1462 1464 1466 1467 1469 1471 1472 1474 1476 1477 1479 1481 1483 1484 1486 1487 1488 1489 1491 1493 1496 1498 1501 1503 1505 1507 1509 1510
1381 1380 1380 1380 1379 1379 1379 1378 1378 1377 1377 1376 1377 1377 1378 1380 1382 1383 1384 1386 1387 1388 1389 1390 1392 1393 1395 1396 1397 1398 1400 1402 1403 1403 1404 1406 1410 1415 1418 1418 1418 1420 1423 1427 1431 1434 1436 1439 1442 1445 1447 1450 1452 1455 1457 1458 1460 1462 1464 1466 1467 1469 1470 1472 1473 1474 1476 1477 1479 1481 1483 1484 1486 1487 1489 1490 1492 1494 1496 1498 1501 1503 1505 1506 1508 1509
1380 1380 1379 1379 1379 1379 1379 1378 1378 1377 1377 1376 1376 1376 1377 1379 1380 1381 1382 1383 1385 1387 1387 1388 1390 1391 1393 1394 1396 1397 1399 1401 1403 1404 1405 1406 1409 1413 1417 1417 1418 1419 1421 1426 1430 1433 1436 1440 1443 1445 1447 1450 1452 1455 1457 1459 1461 1463 1465 1467 1469 1470 1472 1473 1474 1475 1476 1478 1480 1482 1483 1485 1487 1488 1490 1491 1493 1494 1496 1498 1500 1502 1504 1505 1507 1508
1380 1379 1379 1379 1379 1379 1379 1379 1378 1378 1378 1377 1376 1375 1376 1377 1379 1380 1381 1383 1385 1386 1386 1387 1388 1390 1391 1392 1394 1397 1399 1401 1402 1403 1404 1405 1408 1412 1415 1417 1417 1418 1420 1424 1429 1433 1437 1440 1443 1445 1447 1450 1452 1455 1457 1460 1462 1464 1466 1468 1470 1471 1472 1473 1475 1476 1477 1479 1481 1482 1484 1485 1487 1488 1490 1491 1493 1494 1496 1498 1499 1501 1503 1505 1506 1507
1380 1379 1378 1378 1378 1378 1379 1379 1378 1378 1379 1378 1377 1375 1374 1376 1377 1378 1380 1382 1384 1385 1385 1386 1387 1388 1390 1392 1394 1397 1398 1400 1401 1402 1403 1404 1407 1410 1413 1416 1417 1417 1418 1422 1427 1433 1438 1441 1443 1445 1447 1449 1451 1453 1456 1458 1461 1463 1466 1469 1471 1472 1473 1474 1476 1477 1478 1480 1481 1483 1484 1486 1487 1488 1490 1491 1492 1494 1495 1497 1499 1501 1502 1504 1506 1507
1380 1379 1378 1378 1378 1378 1378 1378 1378 1378 1379 1379 1378 1376 1374 1374 1376 1377 1379 1381 1382 1383 1384 1385 1387 1388 1390 1390 1392 1394 1397 1399 1400 1401 1402 1404 1406 1408 1411 1414 1416 1417 1418 1420 1424 1431 1437 1441 1443 1445 1447 1448 1450 1452 1455 1457 1460 1462 1465 1467 1470 1472 1473 1475 1476 1477 1479 1480 1482 1483 1484 1485 1487 1488 1489 1490 1492 1493 1495 1497 1499 1501 1502 1504 1505 1506
1382 1380 1379 1379 1378 1378 1378 1378 1379 1379 1379 1379 1379 1377 1375 1374 1375 1376 1377 1378 1380 1381 1383 1385 1387 1389 1390 1390 1390 1392 1394 1397 1399 1400 1402 1403 1406 1408 1410 1412 1415 1418 1420 1421 1422 1425 1431 1437 1441 1444 1446 1447 1449 1452 1454 1457 1459 1461 1463 1466 1468 1470 1472 1474 1476 1477 1479 1480 1481 1482 1484 1485 1486 1487 1488 1490 1491 1492 1494 1496 1498 1500 1502 1503 1504 1506
1383 1382 1381 1380 1379 1379 1379 1379 1379 1379 1379 1379 1379 1378 1376 1374 1374 1375 1376 1377 1378 1380 1382 1385 1387 1388 1389 1389 1389 1390 1392 1395 1397 1399 1401 1403 1406 1408 1410 1411 1414 1417 1421 1423 1424 1424 1426 1431 1435 1440 1443 1446 1448 1451 1454 1457 1459 1461 1462 1464 1466 1468 1470 1472 1474 1476 1478 1479 1480 1482 1483 1484 1485 1487 1488 1489 1491 1492 1494 1496 1497 1499 1501 1502 1504 1505
1385 1384 1383 1382 1381 1380 1380 1380 1380 1380 1379 1379 1379 1378 1377 1375 1374 1375 1376 1377 1378 1379 1382 1384 1386 1387 1388 1389 1390 1391 1392 1394 1397 1399 1401 1403 1405 1407 1408 1411 1413 1416 1419 1422 1424 1426 1427 1428 1431 1435 1440 1444 1448 1451 1453 1456 1458 1460 1462 1463 1465 1467 1469 1471 1473 1475 1477 1478 1480 1481 1482 1483 1484 1486 1487 1489 1490 1492 1493 1495 1497 1499 1500 1502 1503 1504
1387 1386 1385 1384 1383 1382 1382 1382 1381 1381 1380 1380 1379 1379 1377 1376 1376 1376 1377 1378 1378 1379 1381 1383 1386 1388 1389 1390 1391 1392 1393 1395 1397 1399 1401 1402 1404 1406 1408 1410 1412 1414 1416 1419 1422 1425 1427 1429 1430 1432 1436 1442 1447 1450 1453 1455 1457 1460 1462 1463 1465 1466 1468 1470 1472 1475 1477 1478 1479 1480 1482 1482 1484 1485 1487 1488 1490 1492 1493 1495 1497 1498 1500 1501 1502 1503
1388 1387 1387 1386 1385 1384 1384 1383 1383 1382 1382 1381 1380 1380 1379 1377 1377 1378 1379 1379 1380 1381 1382 1383 1385 1387 1389 1391 1392 1392 1394 1396 1398 1400 1401 1402 1404 1405 1407 1410 1412 1413 1415 1417 1419 1422 1425 1428 1431 1432 1435 1439 1444 1449 1452 1455 1457 1459 1461 1463 1465 1466 1468 1470 1472 1474 1476 1478 1479 1480 1481 1482 1484 1485 1487 1488 1490 1491 1493 1494 1496 1497 1499 1500 1501 1502
1389 1388 1388 1388 1387 1387 1386 1386 1385 1385 1384 1383 1382 1382 1381 1379 1379 1379 1380 1381 1382 1383 1384 1384 1385 1386 1388 1390 1391 1393 1395 1397 1399 1400 1402 1402 1404 1405 1407 1410 1412 1413 1414 1415 1417 1419 1421 1425 1429 1433 1436 1438 1441 1445 1450 1453 1456 1458 1460 1462 1464 1466 1468 1470 1472 1474 1476 1477 1478 1479 1481 1482 1483 1485 1486 1488 1489 1491 1492 1494 1496 1497 1498 1499 1500 1501
1391 1390 1390 1389 1389 1389 1388 1388 1387 1387 1386 1385 1385 1384 1383 1381 1381 1381 1381 1382 1383 1385 1386 1387 1387 1387 1388 1390 1391 1392 1394 1397 1398 1400 1402 1403 1405 1406 1407 1410 1412 1414 1414 1414 1415 1417 1419 1422 1427 1432 1436 1438 1441 1444 1447 1451 1454 1456 1458 1461 1463 1465 1467 1469 1471 1473 1475 1476 1477 1479 1480 1481 1483 1484 1486 1487 1489 1490 1492 1493 1495 1496 1497 1498 1499 1500
1392 1392 1392 1391 1391 1391 1390 1390 1390 1389 1389 1388 1387 1386 1385 1383 1382 1382 1382 1383 1384 1386 1387 1389 1389 1390 1390 1390 1392 1393 1395 1396 1398 1400 1402 1404 1406 1407 1408 1411 1413 1415 1416 1417 1417 1418 1419 1421 1424 1428 1432 1437 1441 1444 1447 1450 1452 1454 1457 1460 1462 1465 1467 1469 1471 1472 1474 1476 1477 1478 1479 1481 1482 1484 1485 1487 1488 1490 1491 1493 1494 1495 1496 1497 1498 1499
1395 1394 1394 1393 1393 1393 1393 1392 1392 1392 1391 1390 1389 1388 1387 1385 1384 1384 1384 1384 1385 1386 1388 1390 1391 1392 1392 1392 1393 1395 1396 1398 1400 1402 1404 1406 1408 1410 1411 1412 1414 1416 1417 1419 1420 1421 1422 1423 1425 1427 1430 1435 1439 1443 1447 1449 1451 1453 1456 1458 1461 1464 1466 1468 1470 1472 1473 1475 1476 1477 1478 1480 1482 1483 1485 1486 1488 1489 1491 1492 1493 1494 1495 1496 1497 1498
1397 1397 1396 1396 1395 1395 1395 1394 1394 1393 1392 1392 1390 1389 1388 1387 1387 1386 1386 1386 1386 1387 1389 1391 1392 1394 1395 1395 1396 1397 1398 1401 1402 1404 1406 1408 1411 1412 1414 1415 1417 1418 1419 1420 1422 1422 1423 1424 1426 1429 1432 1435 1438 1442 1445 1448 1452 1454 1456 1457 1459 1462 1465 1467 1469 1471 1472 1474 1475 1476 1478 1479 1481 1482 1484 1486 1487 1489 1490 1491 1492 1493 1494 1495 1496 1497
1400 1399 1398 1398 1397 1397 1397 1396 1395 1394 1393 1392 1391 1390 1389 1389 1389 1389 1388 1388 1388 1389 1390 1392 1393 1395 1396 1397 1398 1398 1400 1402 1404 1406 1408 1411 1413 1415 1416 1418 1419 1421 1421 1422 1422 1423 1424 1426 1427 1430 1433 1435 1438 1442 1445 1448 1452 1454 1456 1457 1459 1461 1464 1466 1468 1469 1471 1472 1474 1476 1477 1478 1480 1482 1483 1485 1487 1488 1489 1490 1491 1492 1493 1494 1495 1496
1402 1402 1401 1400 1400 1399 1398 1397 1396 1395 1394 1393 1392 1391 1391 1391 1391 1391 1391 1391 1391 1392 1392 1393 1394 1396 1397 1398 1399 1400 1401 1403 1405 1407 1410 1412 1415 1417 1418 1420 1422 1423 1423 1423 1423 1424 1426 1427 1429 1431 1434 1436 1438 1441 1444 1448 1451 1454 1456 1457 1459 1461 1463 1465 1466 1468 1470 1472 1473 1475 1476 1478 1479 1481 1483 1484 1486 1487 1488 1489 1490 1491 1492 1493 1494 1494
1405 1404 1403 1403 1402 1401 1400 1398 1397 1396 1395 1394 1394 1393 1393 1393 1393 1393 1393 1394 1395 1395 1395 1395 1396 1396 1397 1399 1401 1402 1403 1405 1406 1408 1411 1413 1416 1417 1419 1421 1423 1425 1426 1425 1425 1426 1427 1429 1432 1433 1436 1438 1440 1442 1444 1447 1450 1453 1456 1458 1460 1461 1462 1463 1465 1467 1469 1471 1472 1474 1476 1477 1479 1480 1482 1483 1485 1486 1487 1488 1489 1490 1491 1492 1493 1493
1408 1407 1406 1405 1403 1402 1401 1400 1399 1399 1398 1397 1397 1396 1396 1396 1396 1395 1396 1396 1397 1398 1398 1398 1398 1397 1398 1400 1402 1403 1405 1407 1408 1410 1412 1414 1417 1418 1420 1421 1423 1425 1427 1427 1428 1428 1429 1432 1434 1436 1438 1441 1442 1444 1446 1448 1450 1453 1455 1457 1459 1461 1462 1463 1465 1467 1468 1470 1472 1474 1475 1477 1478 1480 1481 1482 1483 1485 1486 1487 1488 1489 1490 1491 1492 1492
1410 1409 1408 1407 1406 1405 1404 1403 1402 1402 1401 1400 1399 1399 1399 1398 1398 1398 1398 1398 1399 1400 1401 1402 1401 1400 1400 1402 1403 1405 1406 1408 1410 1412 1413 1415 1417 1419 1420 1422 1423 1424 1426 1427 1429 1431 1432 1433 1435 1437 1439 1442 1444 1446 1447 1449 1450 1452 1454 1456 1458 1460 1462 1463 1465 1467 1468 1470 1472 1473 1475 1476 1477 1479 1480 1482 1483 1484 1485 1486 1487 1488 1489 1490 1490 1491
1412 1411 1410 1409 1408 1407 1407 1406 1405 1404 1403 1403 1402 1402 1402 1401 1401 1401 1401 1401 1401 1402 1403 1404 1404 1403 1403 1403 1405 1406 1407 1409 1411 1413 1414 1416 1418 1419 1421 1422 1423 1424 1425 1427 1428 1430 1432 1434 1436 1437 1439 1441 1443 1445 1447 1449 1450 1452 1453 1455 1457 1459 1461 1462 1464 1466 1468 1469 1471 1472 1474 1475 1477 1478 1479 1481 1482 1483 1484 1485 1486 1487 1488 1488 1489 1490
1414 1413 1413 1412 1411 1410 1410 1409 1408 1407 1407 1406 1406 1405 1405 1404 1404 1403 1403 1403 1404 1404 1405 1406 1406 1406 1406 1406 1407 1407 1408 1410 1412 1413 1415 1417 1419 1420 1421 1422 1423 1424 1425 1426 1427 1429 1431 1433 1436 1437 1439 1440 1442 1444 1446 1448 1450 1451 1452 1454 1456 1458 1460 1462 1464 1466 1467 1469 1470 1472 1473 1475 1476 1477 1479 1480 1481 1482 1483 1484 1485 1486 1487 1487 1488 1488
1416 1416 1415 1414 1414 1413 1412 1412 1411 1410 1410 1409 1409 1408 1407 1407 1407 1407 1406 1406 1407 1407 1407 1407 1408 1409 1409 1410 1409 1409 1410 1411 1412 1414 1416 1418 1419 1421 1422 1423 1424 1425 1426 1427 1428 1429 1431 1432 1435 1438 1440 1442 1442 1444 1446 1447 1449 1451 1452 1454 1456 1458 1460 1462 1463 1465 1467 1468 1470 1471 1473 1474 1475 1477 1478 1479 1480 1481 1482 1483 1484 1484 1485 1486 1486 1487
1418 1418 1417 1417 1416 1416 1415 1414 1414 1413 1413 1412 1412 1411 1411 1410 1410 1409 1409 1409 1409 1409 1409 1410 1410 1411 1412 1412 1413 1413 1412 1413 1413 1415 1417 1418 1420 1422 1423 1425 1426 1427 1427 1428 1429 1430 1431 1433 1435 1438 1441 1443 1444 1445 1446 1447 1449 1451 1453 1455 1457 1458 1460 1462 1463 1465 1466 1468 1469 1471 1472 1473 1474 1476 1477 1478 1479 1480 1481 1482 1482 1482 1483 1484 1485 1486
1420 1420 1419 1419 1418 1418 1417 1417 1417 1416 1416 1415 1415 1414 1413 1413 1412 1412 1412 1412 1412 1412 1412 1412 1413 1413 1414 1415 1415 1416 1416 1416 1416 1417 1418 1419 1421 1423 1424 1426 1427 1428 1429 1429 1430 1431 1432 1434 1436 1439 1442 1444 1446 1447 1448 1449 1450 1452 1453 1455 1457 1459 1460 1462 1463 1465 1466 1467 1469 1470 1471 1472 1474 1475 1476 1477 1478 1479 1480 1480 1481 1481 1482 1482 1483 1484